Regional Weather Roundup
Issued by NWS Sioux Falls, SD

Home | Current Version | Previous Version | Graphics & Text | Print | Product List | Glossary On
Versions: 1 2 3 4 5 6 7 8 9 10 11 12 13 14 15 16 17 18 19 20 21 22 23 24 25 26 27 28 29 30 31 32 33 34 35 36 37 38 39 40 41 42 43 44 45 46 47 48 49 50
256
ASUS43 KFSD 241910
RWRFSD

WEATHER ROUNDUP FOR SE SOUTH DAKOTA/SW MINNESOTA/NW IOWA
NATIONAL WEATHER SERVICE SIOUX FALLS SD
200 PM CDT TUE APR 24 2018

NOTE: "FAIR" INDICATES FEW OR NO CLOUDS BELOW 12,000 FEET WITH NO
SIGNIFICANT WEATHER AND OR OBSTRUCTIONS TO VISIBILITY.


SDZ038>040-050-052>070-242000-
SOUTHEAST SOUTH DAKOTA

CITY           SKY/WX    TMP DP  RH WIND       PRES   REMARKS
BROOKINGS      CLOUDY    46  40  79 NE22G28   30.26R
CHAMBERLAIN    DRIZZLE   43  43 100 N17G23    30.34S
HURON          LGT RAIN  43  39  86 N22G32    30.33R
MADISON        MIX PCPN  45  45 100 NE18G25   30.25S
MITCHELL       CLOUDY    47  42  83 N15       30.29S
SIOUX FALLS    CLOUDY    46  39  76 NE18      30.23S
WINNER         LGT RAIN  42  38  85 N22G32    30.35S FOG
YANKTON        LGT RAIN  48  43  82 N12       30.21F
$$

MNZ071-072-080-081-089-090-097-098-242000-
SOUTHWEST MINNESOTA

CITY           SKY/WX    TMP DP  RH WIND       PRES   REMARKS
FAIRMONT       MOSUNNY   57  44  62 N18       30.16S
JACKSON        MOSUNNY   54  43  66 N14G24    30.19S
LUVERNE        LGT RAIN  45  37  76 NE21G29   30.21S
MARSHALL       LGT RAIN  49  43  80 N17       30.25F
MONTEVIDEO     CLOUDY    46  43  87 NE15G26   30.28S
PIPESTONE      CLOUDY   N/A N/A N/A NE20G28   30.22S
REDWOOD FALLS  LGT RAIN  52  41  66 N13G20    30.23S
TRACY          DRIZZLE   49  44  82 N20       30.23F
WINDOM         CLOUDY    55  34  44 N22G31    30.19S
WORTHINGTON    PTSUNNY   51  40  65 N22G30    30.20S
$$

IAZ001>003-012>014-020>022-031-032-NEZ013-014-SDZ071-242000-
NORTHWEST IOWA

CITY           SKY/WX    TMP DP  RH WIND       PRES   REMARKS
ESTHERVILLE    CLOUDY    56  44  64 N20       30.16F
SIOUX CITY     CLOUDY    62  42  47 N13       30.16S
SPENCER        PTSUNNY   59  43  55 N21       30.16F
$$

ABBREVIATIONS USED IN REMARKS
   TC - TEMPERATURE IN CELSIUS
  WCI - WIND CHILL INDEX
   HX - HEAT INDEX
  VSB - VISIBILITY





USA.gov is the U.S. government's official web portal to all federal, state and local government web resources and services.